Content
SEND FEEDBACK

Daily
Averages
Monthly
Summary
United States of America

FORT LEE, NEW JERSEY


Home > North America > United States > New Jersey
Elevation: 128 feet     Latitude: 40 46N     Longitude: 073 58W

WEATHER
 
SELECT A DAY
Number of Records: 148,109;   Date Range: 11/1/95 - 7/29/14
 
SHARE

PRINT THIS DATA

[ ← Previous Day ]
WEATHER ALMANAC - JANUARY 11, 2013
[ Next Day → ]
[ °C ]   °F
Weather ElementAverageHighLow
Temperature41.9 °F46 °F (9:35 pm)37.9 °F (2:51 am)
Dewpoint34.9 °F45 °F (9:35 pm)21.9 °F (1:51 am)
Humidity78.5 %100 % (11:46 pm)49 % (1:51 am)
Barometer30.29 in30.51 in (1:51 am)30.10 in (11:51 pm)
Wind Speed4.4 mph8.1 mph (8:51 am)
Weather ElementAverage
Visibility6.4 mi
Wind DirectionENE (54.4 °)

Weather ElementTotal
Precipitation0.84 in
Heating Degree Days23.1 (Base 65)
Averaged from 32 records on January 11, 2013
WEATHER CONDITIONS BREAKOUT
WIND DIRECTION BREAKOUT
WEATHER BY HOUR - JANUARY 11, 2013
[ °C ]   °F
Local TimeTemperatureDewpointHumidityBarometerVisibilityWind DirectionWind SpeedGust SpeedPrecipitationEventsConditions
1:51 AM39.9 °F21.9 °F49 %30.51 in10.0 miNNE (30°)3.5 mphClear
2:51 AM37.9 °F21.9 °F53 %30.51 in10.0 miEast (80°)5.8 mphClear
3:51 AM37.9 °F21.9 °F53 %30.48 in10.0 miVariable4.6 mphClear
4:51 AM37.9 °F21.9 °F53 %30.45 in10.0 miENE (60°)4.6 mphClear
5:51 AM37.9 °F24.1 °F57 %30.46 in10.0 miCalmClear
6:51 AM39.0 °F24.1 °F55 %30.47 in10.0 miSSE (150°)5.8 mphPartly Cloudy
7:51 AM39.0 °F24.1 °F55 %30.48 in10.0 miEast (90°)4.6 mphClear
8:51 AM39.0 °F25.0 °F57 %30.45 in10.0 miESE (120°)8.1 mphClear
9:51 AM41.0 °F27.0 °F57 %30.45 in10.0 miESE (120°)6.9 mphClear
10:51 AM42.1 °F28.0 °F58 %30.42 in10.0 miEast (100°)6.9 mphPartly Cloudy
11:51 AM42.1 °F28.9 °F60 %30.37 in10.0 miVariable4.6 mphOvercast
12:51 PM42.1 °F30.9 °F65 %30.34 in10.0 miENE (70°)4.6 mphOvercast
1:51 PM42.1 °F34.0 °F73 %30.32 in10.0 miENE (60°)6.9 mph0.00 inOvercast
2:51 PM42.1 °F33.1 °F70 %30.30 in10.0 miEast (100°)6.9 mphOvercast
3:51 PM41.0 °F35.1 °F79 %30.27 in10.0 miENE (70°)6.9 mph0.00 inOvercast
4:51 PM41.0 °F37.0 °F86 %30.25 in10.0 miEast (90°)3.5 mph0.00 inRainLight Rain
5:37 PM39.9 °F37.9 °F93 %30.25 in3.0 miENE (60°)5.8 mph0.02 inRainRain
5:44 PM39.9 °F39.0 °F97 %30.25 in2.5 miVariable3.5 mph0.03 inRainLight Rain
5:51 PM41.0 °F39.0 °F93 %30.22 in3.0 miVariable3.5 mph0.05 inRainRain
6:51 PM42.1 °F41.0 °F96 %30.18 in3.0 miESE (110°)4.6 mph0.06 inRainLight Rain
7:12 PM43.0 °F42.1 °F97 %30.19 in1.8 miNNE (30°)4.6 mph0.04 inRainRain
7:29 PM42.1 °F41.0 °F96 %30.21 in2.0 miCalm0.08 inRainRain
7:51 PM43.0 °F42.1 °F97 %30.20 in1.2 miWNW (290°)3.5 mph0.17 inRainRain
8:51 PM43.0 °F42.1 °F97 %30.17 in1.5 miCalm0.12 inRainLight Rain
9:19 PM45.0 °F44.1 °F97 %30.18 in2.5 miVariable4.6 mph0.03 inRainRain
9:35 PM46.0 °F45.0 °F96 %30.18 in5.0 miVariable5.8 mph0.05 inRainLight Rain
9:51 PM46.0 °F44.1 °F93 %30.14 in2.5 miVariable4.6 mph0.07 inRainRain
9:59 PM46.0 °F44.1 °F93 %30.17 in4.0 miVariable4.6 mph0.01 inRainLight Rain
10:51 PM46.0 °F44.1 °F93 %30.12 in4.0 miVariable3.5 mph0.03 inOvercast
11:10 PM45.0 °F44.1 °F97 %30.14 in1.8 miCalm0.00 inRainLight Rain
11:46 PM44.6 °F44.6 °F100 %30.12 in2.5 miENE (60°)3.5 mph0.04 inRainLight Rain
11:51 PM45.0 °F44.1 °F97 %30.10 in3.0 miNE (50°)4.6 mph0.04 inOvercast
Hourly data recorded from KNYC, located miles away from Fort Lee, New Jersey







STORIES FROM OUR PARTNERS